Time,TemperatureF,DewpointF,PressureIn,WindDirection,WindDirectionDegrees,WindSpeedMPH,WindSpeedGustMPH,Humidity,HourlyPrecipIn,Conditions,Clouds,dailyrainin,SoftwareType,DateUTC
2013-03-10 00:00:00,39.9,38.6,30.46,ENE,67,3.0,3.0,95,0.00,,,0.00,Wunderground v.1.15,2013-03-10 08:00:00,
2013-03-10 00:05:00,40.0,38.7,30.47,ENE,67,2.0,6.0,95,0.00,,,0.00,Wunderground v.1.15,2013-03-10 08:05:00,
2013-03-10 00:10:00,39.9,38.6,30.47,ENE,67,2.0,2.0,95,0.00,,,0.00,Wunderground v.1.15,2013-03-10 08:10:00,
2013-03-10 00:16:00,39.9,38.6,30.46,ENE,67,2.0,3.0,95,0.00,,,0.00,Wunderground v.1.15,2013-03-10 08:16:00,
2013-03-10 00:21:00,39.8,38.5,30.47,ENE,67,3.0,3.0,95,0.00,,,0.00,Wunderground v.1.15,2013-03-10 08:21:00,
2013-03-10 00:26:00,39.6,38.3,30.46,ENE,67,3.0,5.0,95,0.00,,,0.00,Wunderground v.1.15,2013-03-10 08:26:00,
2013-03-10 00:31:00,39.3,37.7,30.47,ENE,67,4.0,4.0,94,0.00,,,0.00,Wunderground v.1.15,2013-03-10 08:31:00,
2013-03-10 00:36:00,38.9,37.6,30.47,ENE,67,3.0,4.0,95,0.00,,,0.00,Wunderground v.1.15,2013-03-10 08:36:00,
2013-03-10 00:42:00,38.9,37.6,30.47,ENE,67,3.0,3.0,95,0.00,,,0.00,Wunderground v.1.15,2013-03-10 08:42:00,
2013-03-10 00:48:00,38.9,37.6,30.47,ENE,67,3.0,3.0,95,0.00,,,0.00,Wunderground v.1.15,2013-03-10 08:48:00,
2013-03-10 00:53:00,38.9,37.6,30.47,ENE,67,3.0,4.0,95,0.00,,,0.00,Wunderground v.1.15,2013-03-10 08:53:00,
2013-03-10 00:58:00,38.6,37.3,30.47,ENE,67,3.0,4.0,95,0.00,,,0.00,Wunderground v.1.15,2013-03-10 08:58:00,
2013-03-10 01:04:00,38.5,37.2,30.47,ENE,67,3.0,5.0,95,0.00,,,0.00,Wunderground v.1.15,2013-03-10 09:04:00,
2013-03-10 01:10:00,38.5,37.2,30.46,ENE,67,3.0,5.0,95,0.00,,,0.00,Wunderground v.1.15,2013-03-10 09:10:00,
2013-03-10 01:16:00,38.6,37.3,30.46,ENE,67,4.0,5.0,95,0.00,,,0.00,Wunderground v.1.15,2013-03-10 09:16:00,
2013-03-10 01:22:00,38.7,37.7,30.46,ENE,67,4.0,5.0,96,0.00,,,0.00,Wunderground v.1.15,2013-03-10 09:22:00,
2013-03-10 01:28:00,38.7,37.7,30.47,ENE,67,4.0,7.0,96,0.00,,,0.00,Wunderground v.1.15,2013-03-10 09:28:00,
2013-03-10 01:33:00,38.7,37.4,30.47,ENE,67,4.0,5.0,95,0.00,,,0.00,Wunderground v.1.15,2013-03-10 09:33:00,
2013-03-10 01:39:00,38.1,36.8,30.47,ENE,67,4.0,5.0,95,0.00,,,0.00,Wunderground v.1.15,2013-03-10 09:39:00,
2013-03-10 01:44:00,37.2,35.9,30.47,ENE,67,4.0,5.0,95,0.00,,,0.00,Wunderground v.1.15,2013-03-10 09:44:00,
2013-03-10 01:49:00,36.8,35.5,30.47,ENE,67,4.0,7.0,95,0.00,,,0.00,Wunderground v.1.15,2013-03-10 09:49:00,
2013-03-10 01:54:00,37.0,36.0,30.47,ENE,67,4.0,5.0,96,0.00,,,0.00,Wunderground v.1.15,2013-03-10 09:54:00,
2013-03-10 03:00:00,37.1,36.1,30.46,ENE,67,3.0,5.0,96,0.00,,,0.00,Wunderground v.1.15,2013-03-10 10:00:00,
2013-03-10 03:06:00,37.3,36.3,30.47,ENE,67,4.0,5.0,96,0.00,,,0.00,Wunderground v.1.15,2013-03-10 10:06:00,
2013-03-10 03:11:00,37.3,36.3,30.46,ENE,67,3.0,5.0,96,0.00,,,0.00,Wunderground v.1.15,2013-03-10 10:11:00,
2013-03-10 03:17:00,37.5,36.5,30.46,ENE,62,3.0,5.0,96,0.00,,,0.00,Wunderground v.1.15,2013-03-10 10:17:00,
2013-03-10 03:23:00,37.4,36.4,30.46,ENE,62,4.0,5.0,96,0.00,,,0.00,Wunderground v.1.15,2013-03-10 10:23:00,
2013-03-10 03:28:00,37.4,36.4,30.45,ENE,67,4.0,5.0,96,0.00,,,0.00,Wunderground v.1.15,2013-03-10 10:28:00,
2013-03-10 03:33:00,37.2,36.2,30.45,ENE,71,4.0,7.0,96,0.00,,,0.00,Wunderground v.1.15,2013-03-10 10:33:00,
2013-03-10 03:39:00,37.1,36.1,30.45,ENE,69,4.0,7.0,96,0.00,,,0.00,Wunderground v.1.15,2013-03-10 10:39:00,
2013-03-10 03:45:00,37.1,36.1,30.45,ENE,69,4.0,5.0,96,0.00,,,0.00,Wunderground v.1.15,2013-03-10 10:45:00,
2013-03-10 03:50:00,36.9,35.9,30.45,ENE,69,3.0,5.0,96,0.00,,,0.00,Wunderground v.1.15,2013-03-10 10:50:00,
2013-03-10 03:56:00,36.9,35.9,30.45,ENE,69,3.0,5.0,96,0.00,,,0.00,Wunderground v.1.15,2013-03-10 10:56:00,
2013-03-10 04:01:00,36.9,35.9,30.44,ENE,68,3.0,5.0,96,0.00,,,0.00,Wunderground v.1.15,2013-03-10 11:01:00,
2013-03-10 04:07:00,36.7,35.7,30.44,ENE,68,4.0,5.0,96,0.00,,,0.00,Wunderground v.1.15,2013-03-10 11:07:00,
2013-03-10 04:13:00,36.5,35.5,30.44,ENE,69,4.0,5.0,96,0.00,,,0.00,Wunderground v.1.15,2013-03-10 11:13:00,
2013-03-10 04:18:00,36.5,35.5,30.44,ENE,69,4.0,5.0,96,0.00,,,0.00,Wunderground v.1.15,2013-03-10 11:18:00,
2013-03-10 04:24:00,36.7,35.9,30.44,ENE,69,3.0,5.0,97,0.00,,,0.00,Wunderground v.1.15,2013-03-10 11:24:00,
2013-03-10 04:29:00,37.2,36.4,30.45,ENE,69,4.0,5.0,97,0.00,,,0.00,Wunderground v.1.15,2013-03-10 11:29:00,
2013-03-10 04:35:00,37.1,36.1,30.45,ENE,69,3.0,5.0,96,0.00,,,0.00,Wunderground v.1.15,2013-03-10 11:35:00,
2013-03-10 04:41:00,37.3,36.5,30.45,NE,47,3.0,5.0,97,0.00,,,0.00,Wunderground v.1.15,2013-03-10 11:41:00,
2013-03-10 04:47:00,37.6,36.8,30.45,NE,52,3.0,5.0,97,0.00,,,0.00,Wunderground v.1.15,2013-03-10 11:47:00,
2013-03-10 04:52:00,38.3,37.5,30.45,NE,38,3.0,5.0,97,0.00,,,0.00,Wunderground v.1.15,2013-03-10 11:52:00,
2013-03-10 04:58:00,38.9,38.1,30.45,ENE,60,3.0,5.0,97,0.00,,,0.00,Wunderground v.1.15,2013-03-10 11:58:00,
2013-03-10 05:04:00,38.8,38.0,30.45,ENE,61,4.0,8.0,97,0.00,,,0.00,Wunderground v.1.15,2013-03-10 12:04:00,
2013-03-10 05:10:00,38.2,37.2,30.45,ENE,65,6.0,7.0,96,0.00,,,0.00,Wunderground v.1.15,2013-03-10 12:10:00,
2013-03-10 05:16:00,38.0,37.0,30.45,ENE,66,6.0,7.0,96,0.00,,,0.00,Wunderground v.1.15,2013-03-10 12:16:00,
2013-03-10 05:22:00,37.8,36.8,30.46,ENE,64,6.0,7.0,96,0.00,,,0.00,Wunderground v.1.15,2013-03-10 12:22:00,
2013-03-10 05:28:00,37.9,37.1,30.46,East,79,6.0,8.0,97,0.00,,,0.00,Wunderground v.1.15,2013-03-10 12:28:00,
2013-03-10 05:33:00,38.1,37.3,30.46,ENE,78,5.0,6.0,97,0.00,,,0.00,Wunderground v.1.15,2013-03-10 12:33:00,
2013-03-10 05:39:00,38.4,37.6,30.46,ENE,78,4.0,6.0,97,0.00,,,0.00,Wunderground v.1.15,2013-03-10 12:39:00,
2013-03-10 05:44:00,38.5,37.5,30.46,ENE,69,4.0,5.0,96,0.00,,,0.00,Wunderground v.1.15,2013-03-10 12:44:00,
2013-03-10 05:49:00,38.4,37.4,30.46,ENE,69,4.0,5.0,96,0.00,,,0.00,Wunderground v.1.15,2013-03-10 12:49:00,
2013-03-10 05:55:00,38.2,37.2,30.46,ENE,70,4.0,5.0,96,0.00,,,0.00,Wunderground v.1.15,2013-03-10 12:55:00,
2013-03-10 06:00:00,38.2,37.2,30.45,East,85,4.0,6.0,96,0.00,,,0.00,Wunderground v.1.15,2013-03-10 13:00:00,
2013-03-10 06:06:00,38.1,37.1,30.45,East,85,4.0,6.0,96,0.00,,,0.00,Wunderground v.1.15,2013-03-10 13:06:00,
2013-03-10 06:12:00,38.2,37.2,30.45,ENE,70,3.0,5.0,96,0.00,,,0.00,Wunderground v.1.15,2013-03-10 13:12:00,
2013-03-10 06:17:00,38.0,37.0,30.45,ENE,75,4.0,5.0,96,0.00,,,0.00,Wunderground v.1.15,2013-03-10 13:17:00,
2013-03-10 06:23:00,38.1,37.1,30.45,East,82,5.0,7.0,96,0.00,,,0.00,Wunderground v.1.15,2013-03-10 13:23:00,
2013-03-10 06:29:00,38.0,37.0,30.45,East,80,6.0,9.0,96,0.00,,,0.00,Wunderground v.1.15,2013-03-10 13:29:00,
2013-03-10 06:34:00,37.8,36.8,30.45,East,81,6.0,7.0,96,0.00,,,0.00,Wunderground v.1.15,2013-03-10 13:34:00,
2013-03-10 06:40:00,37.8,36.8,30.46,ENE,73,5.0,5.0,96,0.00,,,0.00,Wunderground v.1.15,2013-03-10 13:40:00,
2013-03-10 06:45:00,37.7,36.7,30.45,ENE,74,4.0,5.0,96,0.00,,,0.00,Wunderground v.1.15,2013-03-10 13:45:00,
2013-03-10 06:51:00,37.5,36.5,30.45,East,85,5.0,6.0,96,0.00,,,0.00,Wunderground v.1.15,2013-03-10 13:51:00,
2013-03-10 06:57:00,37.5,36.5,30.46,ENE,74,5.0,7.0,96,0.00,,,0.00,Wunderground v.1.15,2013-03-10 13:57:00,
2013-03-10 07:02:00,37.2,36.2,30.45,ENE,74,4.0,7.0,96,0.00,,,0.00,Wunderground v.1.15,2013-03-10 14:02:00,
2013-03-10 07:07:00,37.1,36.1,30.45,ENE,76,4.0,7.0,96,0.00,,,0.00,Wunderground v.1.15,2013-03-10 14:07:00,
2013-03-10 07:12:00,37.1,36.1,30.45,ENE,69,4.0,7.0,96,0.00,,,0.00,Wunderground v.1.15,2013-03-10 14:12:00,
2013-03-10 07:17:00,37.1,36.1,30.45,ENE,68,4.0,7.0,96,0.00,,,0.00,Wunderground v.1.15,2013-03-10 14:17:00,
2013-03-10 07:22:00,36.9,35.9,30.45,ENE,67,3.0,5.0,96,0.00,,,0.00,Wunderground v.1.15,2013-03-10 14:22:00,
2013-03-10 07:28:00,36.8,35.8,30.45,ENE,67,4.0,5.0,96,0.00,,,0.00,Wunderground v.1.15,2013-03-10 14:28:00,
2013-03-10 07:33:00,36.6,35.6,30.45,ENE,67,3.0,5.0,96,0.00,,,0.00,Wunderground v.1.15,2013-03-10 14:33:00,
2013-03-10 07:39:00,36.5,35.5,30.46,ENE,67,3.0,5.0,96,0.00,,,0.00,Wunderground v.1.15,2013-03-10 14:39:00,
2013-03-10 07:44:00,36.6,35.6,30.46,ENE,67,3.0,5.0,96,0.00,,,0.00,Wunderground v.1.15,2013-03-10 14:44:00,
2013-03-10 07:50:00,36.8,35.8,30.47,ENE,67,3.0,5.0,96,0.00,,,0.00,Wunderground v.1.15,2013-03-10 14:50:00,
2013-03-10 07:55:00,36.8,35.8,30.47,ENE,67,3.0,5.0,96,0.00,,,0.00,Wunderground v.1.15,2013-03-10 14:55:00,
2013-03-10 08:01:00,36.8,35.8,30.47,ENE,68,4.0,5.0,96,0.00,,,0.00,Wunderground v.1.15,2013-03-10 15:01:00,
2013-03-10 08:06:00,36.8,35.8,30.47,ENE,69,4.0,5.0,96,0.00,,,0.00,Wunderground v.1.15,2013-03-10 15:06:00,
2013-03-10 08:11:00,36.9,35.9,30.47,ENE,69,4.0,5.0,96,0.00,,,0.00,Wunderground v.1.15,2013-03-10 15:11:00,
2013-03-10 08:17:00,37.0,36.0,30.46,ENE,69,4.0,5.0,96,0.00,,,0.00,Wunderground v.1.15,2013-03-10 15:17:00,
2013-03-10 08:23:00,37.1,36.1,30.46,ENE,69,3.0,5.0,96,0.00,,,0.00,Wunderground v.1.15,2013-03-10 15:23:00,
2013-03-10 08:29:00,37.2,36.2,30.46,ENE,69,3.0,5.0,96,0.00,,,0.00,Wunderground v.1.15,2013-03-10 15:29:00,
2013-03-10 08:34:00,37.3,36.3,30.46,ENE,69,2.0,5.0,96,0.00,,,0.00,Wunderground v.1.15,2013-03-10 15:34:00,
2013-03-10 08:39:00,37.5,36.5,30.46,ENE,69,3.0,5.0,96,0.00,,,0.00,Wunderground v.1.15,2013-03-10 15:39:00,
2013-03-10 08:45:00,37.5,36.5,30.46,ENE,69,3.0,5.0,96,0.00,,,0.00,Wunderground v.1.15,2013-03-10 15:45:00,
2013-03-10 08:50:00,37.6,36.6,30.46,ENE,69,3.0,5.0,96,0.00,,,0.00,Wunderground v.1.15,2013-03-10 15:50:00,
2013-03-10 08:56:00,37.9,36.9,30.46,ENE,69,3.0,5.0,96,0.00,,,0.00,Wunderground v.1.15,2013-03-10 15:56:00,
2013-03-10 09:02:00,38.1,37.1,30.47,ENE,69,3.0,5.0,96,0.00,,,0.00,Wunderground v.1.15,2013-03-10 16:02:00,
2013-03-10 09:07:00,38.3,37.3,30.47,ENE,69,2.0,5.0,96,0.00,,,0.00,Wunderground v.1.15,2013-03-10 16:07:00,
2013-03-10 09:12:00,38.6,37.6,30.47,ENE,69,2.0,5.0,96,0.00,,,0.00,Wunderground v.1.15,2013-03-10 16:12:00,
2013-03-10 09:17:00,38.9,37.9,30.47,ENE,69,2.0,5.0,96,0.00,,,0.00,Wunderground v.1.15,2013-03-10 16:17:00,
2013-03-10 09:23:00,39.3,38.3,30.47,ENE,69,2.0,5.0,96,0.00,,,0.00,Wunderground v.1.15,2013-03-10 16:23:00,
2013-03-10 09:29:00,39.2,38.2,30.46,ENE,63,4.0,8.0,96,0.00,,,0.00,Wunderground v.1.15,2013-03-10 16:29:00,
2013-03-10 09:34:00,39.5,38.5,30.46,ENE,65,6.0,7.0,96,0.00,,,0.00,Wunderground v.1.15,2013-03-10 16:34:00,
2013-03-10 09:40:00,39.8,38.5,30.46,ENE,64,6.0,7.0,95,0.00,,,0.00,Wunderground v.1.15,2013-03-10 16:40:00,
2013-03-10 09:45:00,40.2,39.2,30.46,ENE,64,5.0,7.0,96,0.00,,,0.00,Wunderground v.1.15,2013-03-10 16:45:00,
2013-03-10 09:50:00,40.8,39.7,30.46,ENE,64,5.0,5.0,96,0.00,,,0.00,Wunderground v.1.15,2013-03-10 16:50:00,
2013-03-10 09:55:00,41.4,40.1,30.46,ENE,64,5.0,7.0,95,0.00,,,0.00,Wunderground v.1.15,2013-03-10 16:55:00,
2013-03-10 10:01:00,42.2,40.9,30.46,ENE,63,4.0,5.0,95,0.00,,,0.00,Wunderground v.1.15,2013-03-10 17:01:00,
2013-03-10 10:07:00,42.7,41.1,30.46,ENE,64,4.0,5.0,94,0.00,,,0.00,Wunderground v.1.15,2013-03-10 17:07:00,
2013-03-10 10:13:00,43.4,41.5,30.46,ENE,64,4.0,5.0,93,0.00,,,0.00,Wunderground v.1.15,2013-03-10 17:13:00,
2013-03-10 10:18:00,43.6,41.4,30.46,ENE,60,5.0,7.0,92,0.00,,,0.00,Wunderground v.1.15,2013-03-10 17:18:00,
2013-03-10 10:24:00,44.1,42.2,30.46,North,5,4.0,7.0,93,0.00,,,0.00,Wunderground v.1.15,2013-03-10 17:24:00,
2013-03-10 10:30:00,44.5,42.3,30.46,North,9,2.0,5.0,92,0.00,,,0.00,Wunderground v.1.15,2013-03-10 17:30:00,
2013-03-10 10:35:00,44.0,41.5,30.46,North,360,4.0,7.0,91,0.00,,,0.00,Wunderground v.1.15,2013-03-10 17:35:00,
2013-03-10 10:41:00,43.9,41.7,30.47,North,355,5.0,6.0,92,0.00,,,0.00,Wunderground v.1.15,2013-03-10 17:41:00,
2013-03-10 10:47:00,44.3,41.8,30.47,North,355,4.0,6.0,91,0.00,,,0.00,Wunderground v.1.15,2013-03-10 17:47:00,
2013-03-10 10:53:00,44.4,41.9,30.47,NNW,348,4.0,6.0,91,0.00,,,0.00,Wunderground v.1.15,2013-03-10 17:53:00,
2013-03-10 10:59:00,44.3,41.6,30.47,North,351,5.0,7.0,90,0.00,,,0.00,Wunderground v.1.15,2013-03-10 17:59:00,
2013-03-10 11:04:00,44.4,41.7,30.47,North,355,6.0,8.0,90,0.00,,,0.00,Wunderground v.1.15,2013-03-10 18:04:00,
2013-03-10 11:10:00,44.4,41.7,30.47,North,355,6.0,6.0,90,0.00,,,0.00,Wunderground v.1.15,2013-03-10 18:10:00,
2013-03-10 11:16:00,44.8,42.0,30.46,North,355,5.0,6.0,90,0.00,,,0.00,Wunderground v.1.15,2013-03-10 18:16:00,
2013-03-10 11:21:00,45.0,42.2,30.46,North,355,4.0,5.0,90,0.00,,,0.00,Wunderground v.1.15,2013-03-10 18:21:00,
2013-03-10 11:26:00,45.3,42.5,30.46,North,355,4.0,5.0,90,0.00,,,0.00,Wunderground v.1.15,2013-03-10 18:26:00,
2013-03-10 11:32:00,45.4,42.3,30.46,North,355,4.0,6.0,89,0.00,,,0.00,Wunderground v.1.15,2013-03-10 18:32:00,
2013-03-10 11:37:00,45.4,42.3,30.45,North,355,5.0,7.0,89,0.00,,,0.00,Wunderground v.1.15,2013-03-10 18:37:00,
2013-03-10 11:42:00,45.7,42.6,30.46,North,355,4.0,5.0,89,0.00,,,0.00,Wunderground v.1.15,2013-03-10 18:42:00,
2013-03-10 11:47:00,46.2,43.1,30.45,North,355,3.0,5.0,89,0.00,,,0.00,Wunderground v.1.15,2013-03-10 18:47:00,
2013-03-10 11:53:00,46.1,42.7,30.45,North,355,4.0,5.0,88,0.00,,,0.00,Wunderground v.1.15,2013-03-10 18:53:00,
2013-03-10 11:58:00,45.9,42.5,30.45,North,355,4.0,7.0,88,0.00,,,0.00,Wunderground v.1.15,2013-03-10 18:58:00,
2013-03-10 12:03:00,45.9,42.8,30.45,North,355,5.0,5.0,89,0.00,,,0.00,Wunderground v.1.15,2013-03-10 19:03:00,
2013-03-10 12:09:00,46.4,43.3,30.45,North,355,4.0,5.0,89,0.00,,,0.00,Wunderground v.1.15,2013-03-10 19:09:00,
2013-03-10 12:14:00,46.5,43.1,30.45,North,355,4.0,5.0,88,0.00,,,0.00,Wunderground v.1.15,2013-03-10 19:14:00,
2013-03-10 12:19:00,46.5,43.4,30.44,North,355,5.0,6.0,89,0.00,,,0.00,Wunderground v.1.15,2013-03-10 19:19:00,
2013-03-10 12:25:00,46.7,43.6,30.44,North,355,5.0,6.0,89,0.00,,,0.00,Wunderground v.1.15,2013-03-10 19:25:00,
2013-03-10 12:31:00,46.7,43.6,30.44,North,360,5.0,6.0,89,0.00,,,0.00,Wunderground v.1.15,2013-03-10 19:31:00,
2013-03-10 12:36:00,46.6,43.5,30.44,North,355,6.0,7.0,89,0.00,,,0.00,Wunderground v.1.15,2013-03-10 19:36:00,
2013-03-10 12:42:00,46.7,43.6,30.44,North,355,7.0,7.0,89,0.00,,,0.00,Wunderground v.1.15,2013-03-10 19:42:00,
2013-03-10 12:49:00,46.8,43.7,30.44,North,349,6.0,7.0,89,0.00,,,0.00,Wunderground v.1.15,2013-03-10 19:49:00,
2013-03-10 12:54:00,46.8,43.7,30.44,North,355,6.0,10.0,89,0.00,,,0.00,Wunderground v.1.15,2013-03-10 19:54:00,
2013-03-10 12:59:00,47.0,43.9,30.44,North,350,6.0,10.0,89,0.00,,,0.00,Wunderground v.1.15,2013-03-10 19:59:00,
2013-03-10 13:05:00,47.1,44.0,30.44,North,351,6.0,8.0,89,0.00,,,0.00,Wunderground v.1.15,2013-03-10 20:05:00,
2013-03-10 13:12:00,47.4,44.3,30.44,North,355,6.0,6.0,89,0.00,,,0.00,Wunderground v.1.15,2013-03-10 20:12:00,
2013-03-10 13:18:00,47.4,44.3,30.44,North,351,6.0,7.0,89,0.00,,,0.00,Wunderground v.1.15,2013-03-10 20:18:00,
2013-03-10 13:23:00,47.5,44.1,30.44,North,351,6.0,7.0,88,0.00,,,0.00,Wunderground v.1.15,2013-03-10 20:23:00,
2013-03-10 13:28:00,47.5,44.1,30.44,North,350,6.0,7.0,88,0.00,,,0.00,Wunderground v.1.15,2013-03-10 20:28:00,
2013-03-10 13:34:00,47.3,43.6,30.44,North,350,6.0,8.0,87,0.00,,,0.00,Wunderground v.1.15,2013-03-10 20:34:00,
2013-03-10 13:40:00,47.3,43.6,30.44,North,355,7.0,8.0,87,0.00,,,0.00,Wunderground v.1.15,2013-03-10 20:40:00,
2013-03-10 13:46:00,47.5,44.1,30.44,North,350,7.0,8.0,88,0.00,,,0.00,Wunderground v.1.15,2013-03-10 20:46:00,
2013-03-10 13:52:00,47.9,44.5,30.44,NNW,348,6.0,6.0,88,0.00,,,0.00,Wunderground v.1.15,2013-03-10 20:52:00,
2013-03-10 13:57:00,48.0,44.3,30.44,NNW,346,5.0,7.0,87,0.00,,,0.00,Wunderground v.1.15,2013-03-10 20:57:00,
2013-03-10 14:03:00,47.9,44.2,30.44,North,355,6.0,7.0,87,0.00,,,0.00,Wunderground v.1.15,2013-03-10 21:03:00,
2013-03-10 14:09:00,47.7,43.7,30.43,North,350,7.0,9.0,86,0.00,,,0.00,Wunderground v.1.15,2013-03-10 21:09:00,
2013-03-10 14:14:00,47.9,44.2,30.44,North,355,6.0,9.0,87,0.00,,,0.00,Wunderground v.1.15,2013-03-10 21:14:00,
2013-03-10 14:20:00,47.7,43.7,30.43,NNW,343,7.0,7.0,86,0.00,,,0.00,Wunderground v.1.15,2013-03-10 21:20:00,
2013-03-10 14:27:00,47.6,43.9,30.43,North,350,9.0,11.0,87,0.00,,,0.00,Wunderground v.1.15,2013-03-10 21:27:00,
2013-03-10 14:32:00,47.8,43.8,30.43,NNW,348,9.0,9.0,86,0.00,,,0.00,Wunderground v.1.15,2013-03-10 21:32:00,
2013-03-10 14:37:00,48.1,44.1,30.43,North,360,8.0,9.0,86,0.00,,,0.00,Wunderground v.1.15,2013-03-10 21:37:00,
2013-03-10 14:43:00,48.0,43.7,30.43,North,355,7.0,9.0,85,0.00,,,0.00,Wunderground v.1.15,2013-03-10 21:43:00,
2013-03-10 14:49:00,48.1,44.1,30.42,NNE,13,7.0,9.0,86,0.00,,,0.00,Wunderground v.1.15,2013-03-10 21:49:00,
2013-03-10 14:54:00,48.6,44.0,30.42,North,355,5.0,8.0,84,0.00,,,0.00,Wunderground v.1.15,2013-03-10 21:54:00,
2013-03-10 14:59:00,48.7,44.1,30.43,North,355,6.0,8.0,84,0.00,,,0.00,Wunderground v.1.15,2013-03-10 21:59:00,
2013-03-10 15:05:00,48.7,44.4,30.42,North,355,7.0,8.0,85,0.00,,,0.00,Wunderground v.1.15,2013-03-10 22:05:00,
2013-03-10 15:11:00,49.0,44.7,30.42,North,355,7.0,7.0,85,0.00,,,0.00,Wunderground v.1.15,2013-03-10 22:11:00,
2013-03-10 15:17:00,49.0,44.4,30.42,North,5,6.0,8.0,84,0.00,,,0.00,Wunderground v.1.15,2013-03-10 22:17:00,
2013-03-10 15:22:00,48.9,44.3,30.42,North,355,7.0,9.0,84,0.00,,,0.00,Wunderground v.1.15,2013-03-10 22:22:00,
2013-03-10 15:27:00,48.3,44.0,30.43,North,355,9.0,11.0,85,0.00,,,0.00,Wunderground v.1.15,2013-03-10 22:27:00,
2013-03-10 15:33:00,47.8,43.8,30.43,North,355,10.0,11.0,86,0.00,,,0.00,Wunderground v.1.15,2013-03-10 22:33:00,
2013-03-10 15:39:00,47.9,43.9,30.43,North,355,9.0,11.0,86,0.00,,,0.00,Wunderground v.1.15,2013-03-10 22:39:00,
2013-03-10 15:45:00,48.0,44.0,30.43,North,360,9.0,11.0,86,0.00,,,0.00,Wunderground v.1.15,2013-03-10 22:45:00,
2013-03-10 15:52:00,47.7,43.7,30.43,North,360,10.0,10.0,86,0.00,,,0.00,Wunderground v.1.15,2013-03-10 22:52:00,
2013-03-10 15:57:00,47.6,43.6,30.43,NNW,344,10.0,13.0,86,0.00,,,0.00,Wunderground v.1.15,2013-03-10 22:57:00,
2013-03-10 16:03:00,47.6,43.6,30.43,North,350,10.0,11.0,86,0.00,,,0.00,Wunderground v.1.15,2013-03-10 23:03:00,
2013-03-10 16:08:00,47.9,43.9,30.43,North,355,9.0,11.0,86,0.00,,,0.00,Wunderground v.1.15,2013-03-10 23:08:00,
2013-03-10 16:14:00,47.7,43.7,30.43,North,355,8.0,11.0,86,0.00,,,0.00,Wunderground v.1.15,2013-03-10 23:14:00,
2013-03-10 16:19:00,47.7,44.0,30.43,North,355,9.0,13.0,87,0.00,,,0.00,Wunderground v.1.15,2013-03-10 23:19:00,
2013-03-10 16:24:00,47.7,44.3,30.43,North,355,10.0,11.0,88,0.00,,,0.00,Wunderground v.1.15,2013-03-10 23:24:00,
2013-03-10 16:29:00,47.9,44.5,30.42,North,351,9.0,11.0,88,0.00,,,0.00,Wunderground v.1.15,2013-03-10 23:29:00,
2013-03-10 16:34:00,48.2,44.8,30.42,North,349,9.0,12.0,88,0.00,,,0.00,Wunderground v.1.15,2013-03-10 23:34:00,
2013-03-10 16:39:00,48.4,45.0,30.42,North,360,8.0,12.0,88,0.00,,,0.00,Wunderground v.1.15,2013-03-10 23:39:00,
2013-03-10 16:45:00,48.5,45.1,30.43,NNW,345,7.0,9.0,88,0.00,,,0.00,Wunderground v.1.15,2013-03-10 23:45:00,
2013-03-10 16:51:00,48.6,45.2,30.43,North,351,7.0,9.0,88,0.00,,,0.00,Wunderground v.1.15,2013-03-10 23:51:00,
2013-03-10 16:57:00,48.5,45.1,30.43,NNW,341,8.0,11.0,88,0.00,,,0.00,Wunderground v.1.15,2013-03-10 23:57:00,
2013-03-10 17:02:00,48.5,45.4,30.42,North,360,8.0,9.0,89,0.00,,,0.00,Wunderground v.1.15,2013-03-11 00:02:00,
2013-03-10 17:07:00,48.3,45.2,30.42,North,355,8.0,10.0,89,0.00,,,0.00,Wunderground v.1.15,2013-03-11 00:07:00,
2013-03-10 17:12:00,48.2,45.4,30.42,North,360,8.0,8.0,90,0.00,,,0.00,Wunderground v.1.15,2013-03-11 00:12:00,
2013-03-10 17:18:00,48.0,45.2,30.42,North,360,7.0,8.0,90,0.00,,,0.00,Wunderground v.1.15,2013-03-11 00:18:00,
2013-03-10 17:23:00,47.9,45.4,30.42,North,350,6.0,7.0,91,0.00,,,0.00,Wunderground v.1.15,2013-03-11 00:23:00,
2013-03-10 17:29:00,48.1,45.6,30.42,North,360,6.0,7.0,91,0.00,,,0.00,Wunderground v.1.15,2013-03-11 00:29:00,
2013-03-10 17:34:00,48.1,45.3,30.42,NNE,24,6.0,8.0,90,0.00,,,0.00,Wunderground v.1.15,2013-03-11 00:34:00,
2013-03-10 17:39:00,48.4,45.6,30.42,North,5,7.0,11.0,90,0.00,,,0.00,Wunderground v.1.15,2013-03-11 00:39:00,
2013-03-10 17:44:00,48.4,45.6,30.42,North,360,7.0,8.0,90,0.00,,,0.00,Wunderground v.1.15,2013-03-11 00:44:00,
2013-03-10 17:49:00,48.5,45.7,30.42,North,355,7.0,9.0,90,0.00,,,0.00,Wunderground v.1.15,2013-03-11 00:49:00,
2013-03-10 17:55:00,48.6,46.1,30.42,North,360,8.0,9.0,91,0.00,,,0.00,Wunderground v.1.15,2013-03-11 00:55:00,
2013-03-10 18:01:00,48.7,46.2,30.41,North,360,7.0,8.0,91,0.00,,,0.00,Wunderground v.1.15,2013-03-11 01:01:00,
2013-03-10 18:07:00,48.7,46.2,30.41,North,349,7.0,9.0,91,0.00,,,0.00,Wunderground v.1.15,2013-03-11 01:07:00,
2013-03-10 18:13:00,48.0,45.8,30.41,North,360,8.0,11.0,92,0.00,,,0.00,Wunderground v.1.15,2013-03-11 01:13:00,
2013-03-10 18:19:00,47.9,45.7,30.41,North,355,8.0,11.0,92,0.00,,,0.00,Wunderground v.1.15,2013-03-11 01:19:00,
2013-03-10 18:25:00,47.8,45.9,30.41,North,355,7.0,8.0,93,0.00,,,0.00,Wunderground v.1.15,2013-03-11 01:25:00,
2013-03-10 18:31:00,47.7,45.8,30.41,NNW,344,8.0,10.0,93,0.00,,,0.00,Wunderground v.1.15,2013-03-11 01:31:00,
2013-03-10 18:36:00,47.6,46.0,30.41,North,9,8.0,10.0,94,0.00,,,0.00,Wunderground v.1.15,2013-03-11 01:36:00,
2013-03-10 18:42:00,47.6,46.0,30.41,North,350,8.0,8.0,94,0.00,,,0.00,Wunderground v.1.15,2013-03-11 01:42:00,
2013-03-10 18:47:00,47.6,46.0,30.40,North,360,8.0,8.0,94,0.00,,,0.00,Wunderground v.1.15,2013-03-11 01:47:00,
2013-03-10 18:52:00,47.4,45.8,30.41,NNW,343,7.0,11.0,94,0.00,,,0.00,Wunderground v.1.15,2013-03-11 01:52:00,
2013-03-10 18:58:00,47.4,46.0,30.40,North,350,8.0,11.0,95,0.00,,,0.00,Wunderground v.1.15,2013-03-11 01:58:00,
2013-03-10 19:03:00,47.2,45.8,30.41,North,355,8.0,11.0,95,0.00,,,0.00,Wunderground v.1.15,2013-03-11 02:03:00,
2013-03-10 19:08:00,47.0,45.6,30.41,North,360,9.0,11.0,95,0.00,,,0.00,Wunderground v.1.15,2013-03-11 02:08:00,
2013-03-10 19:14:00,46.9,45.8,30.41,NNW,348,9.0,11.0,96,0.00,,,0.00,Wunderground v.1.15,2013-03-11 02:14:00,
2013-03-10 19:20:00,46.8,45.7,30.41,North,355,10.0,11.0,96,0.00,,,0.00,Wunderground v.1.15,2013-03-11 02:20:00,
2013-03-10 19:25:00,46.8,45.7,30.41,North,355,10.0,13.0,96,0.00,,,0.00,Wunderground v.1.15,2013-03-11 02:25:00,
2013-03-10 19:30:00,47.0,45.9,30.41,North,349,9.0,9.0,96,0.00,,,0.00,Wunderground v.1.15,2013-03-11 02:30:00,
2013-03-10 19:36:00,47.2,46.4,30.41,North,355,9.0,10.0,97,0.00,,,0.00,Wunderground v.1.15,2013-03-11 02:36:00,
2013-03-10 19:41:00,47.3,46.5,30.41,North,355,9.0,10.0,97,0.00,,,0.00,Wunderground v.1.15,2013-03-11 02:41:00,
2013-03-10 19:47:00,47.2,46.4,30.41,North,351,9.0,11.0,97,0.00,,,0.00,Wunderground v.1.15,2013-03-11 02:47:00,
2013-03-10 19:52:00,47.2,46.4,30.41,North,355,8.0,11.0,97,0.00,,,0.00,Wunderground v.1.15,2013-03-11 02:52:00,
2013-03-10 19:57:00,47.2,46.4,30.40,NE,51,7.0,11.0,97,0.00,,,0.00,Wunderground v.1.15,2013-03-11 02:57:00,
2013-03-10 20:03:00,47.1,46.3,30.40,North,10,4.0,5.0,97,0.00,,,0.00,Wunderground v.1.15,2013-03-11 03:03:00,
2013-03-10 20:09:00,47.1,46.3,30.40,NNE,31,3.0,5.0,97,0.00,,,0.00,Wunderground v.1.15,2013-03-11 03:09:00,
2013-03-10 20:14:00,47.0,46.2,30.40,NNE,31,3.0,5.0,97,0.00,,,0.00,Wunderground v.1.15,2013-03-11 03:14:00,
2013-03-10 20:20:00,46.9,46.1,30.40,NNE,31,2.0,5.0,97,0.00,,,0.00,Wunderground v.1.15,2013-03-11 03:20:00,
2013-03-10 20:26:00,46.8,46.0,30.41,NNE,31,2.0,5.0,97,0.00,,,0.00,Wunderground v.1.15,2013-03-11 03:26:00,
2013-03-10 20:32:00,46.6,45.8,30.41,NNE,31,3.0,5.0,97,0.00,,,0.00,Wunderground v.1.15,2013-03-11 03:32:00,
2013-03-10 20:38:00,46.3,45.2,30.41,NNE,31,3.0,5.0,96,0.00,,,0.00,Wunderground v.1.15,2013-03-11 03:38:00,
2013-03-10 20:44:00,46.1,45.0,30.41,NNE,31,2.0,5.0,96,0.00,,,0.00,Wunderground v.1.15,2013-03-11 03:44:00,
2013-03-10 20:49:00,46.2,45.4,30.41,North,5,2.0,5.0,97,0.00,,,0.00,Wunderground v.1.15,2013-03-11 03:49:00,
2013-03-10 20:55:00,46.6,45.8,30.41,North,5,3.0,5.0,97,0.00,,,0.00,Wunderground v.1.15,2013-03-11 03:55:00,
2013-03-10 21:00:00,46.7,45.9,30.41,North,5,2.0,2.0,97,0.00,,,0.00,Wunderground v.1.15,2013-03-11 04:00:00,
2013-03-10 21:02:00,46.7,45.9,30.41,North,5,2.0,5.0,97,0.00,,,0.00,Wunderground v.1.15,2013-03-11 04:02:00,
2013-03-10 21:05:00,46.7,45.9,30.41,North,5,1.0,5.0,97,0.00,,,0.00,Wunderground v.1.15,2013-03-11 04:05:00,
2013-03-10 21:07:00,46.7,45.9,30.41,North,5,1.0,5.0,97,0.00,,,0.00,Wunderground v.1.15,2013-03-11 04:07:00,
2013-03-10 21:12:00,46.7,45.9,30.41,North,5,2.0,5.0,97,0.00,,,0.00,Wunderground v.1.15,2013-03-11 04:12:00,
2013-03-10 21:18:00,46.7,45.9,30.41,North,5,2.0,5.0,97,0.00,,,0.00,Wunderground v.1.15,2013-03-11 04:18:00,
2013-03-10 21:24:00,46.6,45.8,30.40,North,5,3.0,5.0,97,0.00,,,0.00,Wunderground v.1.15,2013-03-11 04:24:00,
2013-03-10 21:29:00,46.5,45.7,30.40,North,5,2.0,5.0,97,0.00,,,0.00,Wunderground v.1.15,2013-03-11 04:29:00,
2013-03-10 21:34:00,46.5,45.7,30.40,North,5,2.0,5.0,97,0.00,,,0.00,Wunderground v.1.15,2013-03-11 04:34:00,
2013-03-10 21:40:00,46.3,45.5,30.40,North,5,2.0,5.0,97,0.00,,,0.00,Wunderground v.1.15,2013-03-11 04:40:00,
2013-03-10 21:46:00,46.3,45.5,30.41,North,5,2.0,5.0,97,0.00,,,0.00,Wunderground v.1.15,2013-03-11 04:46:00,
2013-03-10 21:51:00,46.5,45.7,30.41,North,5,2.0,5.0,97,0.00,,,0.00,Wunderground v.1.15,2013-03-11 04:51:00,
2013-03-10 21:57:00,46.4,45.6,30.41,North,5,2.0,5.0,97,0.00,,,0.00,Wunderground v.1.15,2013-03-11 04:57:00,
2013-03-10 22:02:00,46.3,45.5,30.41,North,5,1.0,5.0,97,0.00,,,0.00,Wunderground v.1.15,2013-03-11 05:02:00,
2013-03-10 22:08:00,46.0,45.2,30.41,North,5,1.0,5.0,97,0.00,,,0.00,Wunderground v.1.15,2013-03-11 05:08:00,
2013-03-10 22:14:00,46.0,45.2,30.41,North,5,1.0,5.0,97,0.00,,,0.00,Wunderground v.1.15,2013-03-11 05:14:00,
2013-03-10 22:19:00,46.5,45.7,30.41,North,355,3.0,5.0,97,0.00,,,0.00,Wunderground v.1.15,2013-03-11 05:19:00,
2013-03-10 22:25:00,46.6,45.8,30.41,North,355,5.0,6.0,97,0.00,,,0.00,Wunderground v.1.15,2013-03-11 05:25:00,
2013-03-10 22:32:00,46.8,46.0,30.41,North,355,4.0,6.0,97,0.00,,,0.00,Wunderground v.1.15,2013-03-11 05:32:00,
2013-03-10 22:37:00,46.8,46.0,30.42,North,355,4.0,6.0,97,0.00,,,0.00,Wunderground v.1.15,2013-03-11 05:37:00,
2013-03-10 22:42:00,46.7,45.9,30.42,North,355,4.0,5.0,97,0.00,,,0.00,Wunderground v.1.15,2013-03-11 05:42:00,
2013-03-10 22:48:00,46.6,45.8,30.42,North,355,4.0,5.0,97,0.00,,,0.00,Wunderground v.1.15,2013-03-11 05:48:00,
2013-03-10 22:54:00,46.5,45.7,30.42,North,355,5.0,8.0,97,0.00,,,0.00,Wunderground v.1.15,2013-03-11 05:54:00,
2013-03-10 23:00:00,46.5,45.7,30.42,North,355,5.0,5.0,97,0.00,,,0.00,Wunderground v.1.15,2013-03-11 06:00:00,
2013-03-10 23:05:00,46.5,45.7,30.42,North,351,5.0,5.0,97,0.00,,,0.00,Wunderground v.1.15,2013-03-11 06:05:00,
2013-03-10 23:12:00,46.6,45.8,30.42,North,350,6.0,7.0,97,0.00,,,0.00,Wunderground v.1.15,2013-03-11 06:12:00,
2013-03-10 23:17:00,46.6,45.8,30.42,North,355,6.0,8.0,97,0.00,,,0.00,Wunderground v.1.15,2013-03-11 06:17:00,
2013-03-10 23:23:00,46.7,45.9,30.42,North,355,7.0,9.0,97,0.00,,,0.00,Wunderground v.1.15,2013-03-11 06:23:00,
2013-03-10 23:28:00,46.7,45.9,30.42,NNW,348,8.0,9.0,97,0.00,,,0.00,Wunderground v.1.15,2013-03-11 06:28:00,
2013-03-10 23:34:00,46.7,46.2,30.42,NNW,348,8.0,9.0,98,0.00,,,0.00,Wunderground v.1.15,2013-03-11 06:34:00,
2013-03-10 23:39:00,46.7,45.9,30.42,North,355,8.0,9.0,97,0.00,,,0.00,Wunderground v.1.15,2013-03-11 06:39:00,
2013-03-10 23:45:00,46.6,45.8,30.42,North,355,8.0,11.0,97,0.00,,,0.00,Wunderground v.1.15,2013-03-11 06:45:00,
2013-03-10 23:51:00,46.5,46.0,30.41,North,355,8.0,8.0,98,0.00,,,0.00,Wunderground v.1.15,2013-03-11 06:51:00,
2013-03-10 23:57:00,46.5,46.0,30.41,North,5,8.0,9.0,98,0.00,,,0.00,Wunderground v.1.15,2013-03-11 06:57:00,